Погода в Махачкале

Погода в Махачкале : погода сейчас, прогноз погоды и архив. Всё, что Вы хотите узнать о погоде в Махачкале!

Поиск расширенной информации на нашем сайте:

Другие новости

Новости СМИ2

Главная страница сайта

Новости сайта

03.07.2017

Напоминаем, что на нашем специализированном сайте Метеоцентр.Азия вы можете получить высокодетализированные автоматические прогнозы погоды по пунктам России, СНГ и мира в авиационном формате (включающие направление и скорость ветра, видимость, явления погоды, количество и форму облачности, нижнюю и верхнюю границу облачности).

Рекомендуем: Люстра хрустальная интернет.

Погода в Махачкале - сегодня

Время (UTC), дата Ветер
(°,м/с) 
Видим.   Явления Облачность Т
(°С)
Тd
(°С)
f(%) Тe
(°С)
Pmin
(гПа)
dP
(гПа)
Po
(мм)
O2
(г/м3)
Тmin Tmax R s Состояние
почвы
18 17.11.17 280 (З) 4000 м  дымка  10/8 600 м средняя 
[Sc|Ac As]
+6.5 +2.2 74 +7  1029.2  0.1  774  304           
21 17.11.17 300 (СЗ) 4000 м  дымка  10/4 600 м средняя 
[Sc|Ac As]
+6.7 +3.4 79 +8  1028  -1.2  773  303           
00 18.11.17 130 (ЮВ) 4000 м  дымка  10/10 600 м 
+9.2 +4.8 74 +9    -1.4             
03 18.11.17 130 (ЮВ) 4000 м  дымка  10/8 600 м средняя 
[Sc|Ac As]
+9 +6.2 83 +8  1025.3  -1.2  771  300  +6.3         
06 18.11.17 130 (ЮВ) 5-11  10 км    3/0 верхняя 
[Ci fib]
+11 +6.8 75 +10  1023.8  -1.5  770  297        мокрый или
старый снег
50-90% 
09 18.11.17 110 (В) 5-11  10 км    4/0 верхняя 
[Ci sp]
+12.2 +8.5 78 +11  1022  -1.8  768  295        мокрый или
старый снег
50-90% 
12 18.11.17 120 (ЮВ) 7-14  4000 м  слаб. морось  10/10 600 м 
[St]
+11.7 +9.9 89 +11  1021.5  -0.5  768  295          полностью
покрыта
пылью 
15 18.11.17 120 (ЮВ) 4000 м  слаб. морось  10/10 600 м 
[St]
+11.7 +9.7 88 +11  1021.1  -0.3  767  295    +12.8  0.0     
18 18.11.17 120 (ЮВ) 4000 м  дымка{морось}  10/4 600 м средняя 
[Sc|Ac As]
+11.6 +10.1 90 +14  1020.5  -0.6  767  295           
21 18.11.17 270 (З) н/о    н/о 
+8.6 +5.8 83 +8  1019.4  -1  766  298           
00 19.11.17 270 (З) 4000 м  дымка  9/4 600 м средняя, верхняя 
[Sc|Ac As|Ci fib]
+8.2 +4.8 79 +8  1018.4  -1.1  765  299           
03 19.11.17 280 (З) 4000 м    10/4 600 м средняя 
[Sc|Ac As]
+7.8 +4.1 77 +8  1017.8  -0.6  765  299  +7.8        полностью
покрыта
пылью 
06 19.11.17 290 (З) 4000 м  дымка  10/4 600 м средняя 
[Sc|Ac As]
+9 +4.8 75 +9  1017.6  0.1  765  298        496  мокрый или
старый снег
10-40% 
09 19.11.17 080 (В) 4000 м  дымка  10/4 600 м средняя 
[Sc|Ac As]
+11.3 +6.7 73 +12  1016.3  -1.4  764  294           
12 19.11.17 100 (В) 4000 м  дымка  10/1 600 м верхняя 
[Sc diur, vesp|Ci]
+12.1 +8.5 79 +12    -1.1             
15 19.11.17 120 (ЮВ) 4000 м  дымка  10/4 600 м средняя 
[Sc|Ac As]
+12 +9 82 +12  1014.8  -0.3  763  293          замёрзшая 
18 19.11.17 120 (ЮВ) 4000 м  дымка  10/4 600 м средняя 
[Sc|Ac As]
+12 +8.9 81 +12  1014.4  -0.4  762  293           
21 19.11.17 040 (СВ) 4000 м  дымка  10/4 600 м средняя 
[Sc|Ac As]
+11.9 +9.3 84 +13  1012.3  -2.1  761  292           
00 20.11.17 280 (З) 4000 м  дымка  10/4 600 м средняя 
[Sc|Ac As]
+11 +7.8 81 +12  1011.1  -1.2  760  293           
03 20.11.17 280 (З) 4000 м  дымка  10/4 600 м средняя 
[Sc|Ac As]
+10.3 +6.8 79 +9  1011.1  -0.1  760  294  +10.2         
06 20.11.17 300 (СЗ) 4000 м  дымка  10/0 средняя 
[As op]
+11.2 +7.4 77 +10  1011.3  0.2  760  293           
09 20.11.17 300 (СЗ) 4000 м  дымка  6/0 средняя, верхняя 
[Ac trans|Ci fib]
+14.5 +9.1 70 +14  1009.9  -1.5  759  289           
12 20.11.17 310 (СЗ) 4000 м  дымка  3/0 верхняя 
[Ci fib]
+14 +9.1 72 +14  1009.5  -0.3  759  289           
15 20.11.17 260 (З) 4000 м  дымка  9/4 600 м средняя, верхняя 
[Sc|Ac cast|Ci fib]
+10.4 +8.1 86 +11  1010.6  1.1  760  293          замёрзшая 
18 20.11.17 250 (З) 4000 м  дымка  10/0 средняя 
[Ac As]
+10.6 +8.1 85 +10  1010.4  -0.2  759  293           
Время (UTC), дата Ветер
(°,м/с) 
Видим.   Явления Облачность Т
(°С)
Тd
(°С)
f(%) Тe
(°С)
Pmin
(гПа)
dP
(гПа)
Po
(мм)
O2
(г/м3)
Тmin Tmax R s Состояние
почвы

Для получения пояснительной информации подведите курсор к названию столбца.

ПОГОДА в Махачкале - архив

Всё, что Вы хотите узнать о погоде в Махачкале - удобно и подробно!

Выберите нужную дату (начиная с 1 января 2015* года) и нажмите кнопку "Найти".
Будут отображены архивные сводки погоды по пункту Махачкала, начиная с указанной даты.


Отображать данные в формате CSV (для использования в таблицах Excel)


Внимание! Наш архив погоды предназначен исключительно для личного некоммерческого использования в познавательных целях. Если Вам необходимы официальные справки о состоянии погоды (для производственных, юридических, коммерческих и т.п. целей), обращайтесь в органы Росгидромета.

*Примечание: данная дата относится к архиву по метеостанциям СССР (Россия, СНГ, Балтия).
Архив по метеостанциям Зарубежной Европы и Азии (кроме Китая) хранится 10 дней, по другим регионам земного шара (Китай, Африка, Америка, Австралия, Океания) - 1 день.

Махачкала - район местоположения метеостанции


Название, широта, долгота, высота метеостанции:
Махачкала 42.8°ш. 47.6°д. 32 м над ур. моря [Российская Федерация]

Дополнительная информация

В oтличие oт бoльшинства пoгoдных сайтoв мы публикуем пoдрoбную метеoинфoрмацию в детальнoм прoфессиoнальнoм фoрмате.

Характеристики температуры и влажнoсти вoздуха измеряются на высoте 2 м в тени вдали oт зданий и деревьев.
Скoрoсть ветра измеряется на высoте 10 м (на урoвне рoста челoвека скoрoсть ветра ниже в 1.5-2 раза). Если метеoстанция нахoдится в гoрoде или в лесу, тo скoрoсть ветра занижена на 2-4 м/с пo сравнению с oткрытым местoм. Скoрoсть ветра над акватoриями крупных рек и oзёр, а также на вершинах хoлмoв на 2-5 м/с выше, чем в oбычных услoвиях.
Атмoсфернoе давление в разных тoчках местнoсти мoжет значительнo oтличаться oт давления на метеoстанции, в зависимoсти oт услoвий рельефа (при пoдъёме на 10 м давление пoнижается примернo на 1 мм рт.ст.).